Time,TemperatureF,DewpointF,PressureIn,WindDirection,WindDirectionDegrees,WindSpeedMPH,WindSpeedGustMPH,Humidity,HourlyPrecipIn,Conditions,Clouds,dailyrainin,SoftwareType,DateUTC
2013-05-27 00:00:00,70.0,66.0,-100.00,SSW,201,2.0,-999.0,87,0.00,,,0.01,,2013-05-27 05:00:00,
2013-05-27 00:32:00,70.0,66.0,-100.00,SSW,201,2.0,-999.0,87,0.00,,,0.01,,2013-05-27 05:32:00,
2013-05-27 00:42:00,70.0,66.0,-100.00,SSW,201,2.0,-999.0,87,0.00,,,0.01,,2013-05-27 05:42:00,
2013-05-27 00:52:00,70.0,66.0,-100.00,SSW,201,2.0,-999.0,87,0.00,,,0.01,,2013-05-27 05:52:00,
2013-05-27 01:00:00,71.0,67.0,-100.00,SSW,200,1.0,-999.0,88,0.00,,,0.01,,2013-05-27 06:00:00,
2013-05-27 01:32:00,71.0,67.0,-100.00,SSW,200,1.0,-999.0,88,0.00,,,0.01,,2013-05-27 06:32:00,
2013-05-27 01:42:00,71.0,67.0,-100.00,SSW,200,1.0,-999.0,88,0.00,,,0.01,,2013-05-27 06:42:00,
2013-05-27 01:52:00,71.0,67.0,-100.00,SSW,200,1.0,-999.0,88,0.00,,,0.01,,2013-05-27 06:52:00,
2013-05-27 02:00:00,70.0,68.0,-100.00,SSW,207,2.0,-999.0,92,0.00,,,0.01,,2013-05-27 07:00:00,
2013-05-27 02:32:00,70.0,68.0,-100.00,SSW,207,2.0,-999.0,92,0.00,,,0.01,,2013-05-27 07:32:00,
2013-05-27 02:42:00,70.0,68.0,-100.00,SSW,207,2.0,-999.0,92,0.00,,,0.01,,2013-05-27 07:42:00,
2013-05-27 02:52:00,70.0,68.0,-100.00,SSW,207,2.0,-999.0,92,0.00,,,0.01,,2013-05-27 07:52:00,
2013-05-27 03:00:00,70.0,68.0,-100.00,SSW,194,1.0,-999.0,92,0.00,,,0.01,,2013-05-27 08:00:00,
2013-05-27 03:33:00,70.0,68.0,-100.00,SSW,194,1.0,-999.0,92,0.00,,,0.01,,2013-05-27 08:33:00,
2013-05-27 03:42:00,70.0,68.0,-100.00,SSW,194,1.0,-999.0,92,0.00,,,0.01,,2013-05-27 08:42:00,
2013-05-27 03:52:00,70.0,68.0,-100.00,SSW,194,1.0,-999.0,92,0.00,,,0.01,,2013-05-27 08:52:00,
2013-05-27 04:00:00,70.0,68.0,-100.00,South,180,1.0,-999.0,93,0.00,,,0.01,,2013-05-27 09:00:00,
2013-05-27 04:33:00,70.0,68.0,-100.00,South,180,1.0,-999.0,93,0.00,,,0.01,,2013-05-27 09:33:00,
2013-05-27 04:42:00,70.0,68.0,-100.00,South,180,1.0,-999.0,93,0.00,,,0.01,,2013-05-27 09:42:00,
2013-05-27 04:53:00,70.0,68.0,-100.00,South,180,1.0,-999.0,93,0.00,,,0.01,,2013-05-27 09:53:00,
2013-05-27 06:00:00,69.0,68.0,-100.00,South,186,1.0,-999.0,97,0.00,,,0.01,,2013-05-27 11:00:00,
2013-05-27 06:32:00,69.0,68.0,-100.00,South,186,1.0,-999.0,97,0.00,,,0.01,,2013-05-27 11:32:00,
2013-05-27 06:42:00,69.0,68.0,-100.00,South,186,1.0,-999.0,97,0.00,,,0.01,,2013-05-27 11:42:00,
2013-05-27 06:52:00,69.0,68.0,-100.00,South,186,1.0,-999.0,97,0.00,,,0.01,,2013-05-27 11:52:00,
2013-05-27 08:00:00,70.0,68.0,-100.00,SSW,199,2.0,-999.0,93,0.00,,,0.01,,2013-05-27 13:00:00,
2013-05-27 08:32:00,70.0,68.0,-100.00,SSW,199,2.0,-999.0,93,0.00,,,0.01,,2013-05-27 13:32:00,
2013-05-27 08:42:00,70.0,68.0,-100.00,SSW,199,2.0,-999.0,93,0.00,,,0.01,,2013-05-27 13:42:00,
2013-05-27 08:53:00,70.0,68.0,-100.00,SSW,199,2.0,-999.0,93,0.00,,,0.01,,2013-05-27 13:53:00,
2013-05-27 09:00:00,71.0,67.0,-100.00,SSW,202,3.0,-999.0,86,0.00,,,0.01,,2013-05-27 14:00:00,
2013-05-27 09:32:00,71.0,67.0,-100.00,SSW,202,3.0,-999.0,86,0.00,,,0.01,,2013-05-27 14:32:00,
2013-05-27 09:42:00,71.0,67.0,-100.00,SSW,202,3.0,-999.0,86,0.00,,,0.01,,2013-05-27 14:42:00,
2013-05-27 09:52:00,71.0,67.0,-100.00,SSW,202,3.0,-999.0,86,0.00,,,0.01,,2013-05-27 14:52:00,
2013-05-27 10:00:00,74.0,67.0,-100.00,SSW,203,3.0,-999.0,79,0.00,,,0.01,,2013-05-27 15:00:00,
2013-05-27 10:33:00,74.0,67.0,-100.00,SSW,203,3.0,-999.0,79,0.00,,,0.01,,2013-05-27 15:33:00,
2013-05-27 10:43:00,74.0,67.0,-100.00,SSW,203,3.0,-999.0,79,0.00,,,0.01,,2013-05-27 15:43:00,
2013-05-27 10:53:00,74.0,67.0,-100.00,SSW,203,3.0,-999.0,79,0.00,,,0.01,,2013-05-27 15:53:00,
2013-05-27 11:00:00,77.0,66.0,-100.00,SSW,195,4.0,-999.0,69,0.00,,,0.01,,2013-05-27 16:00:00,
2013-05-27 11:33:00,77.0,66.0,-100.00,SSW,195,4.0,-999.0,69,0.00,,,0.01,,2013-05-27 16:33:00,
2013-05-27 11:42:00,77.0,66.0,-100.00,SSW,195,4.0,-999.0,69,0.00,,,0.01,,2013-05-27 16:42:00,
2013-05-27 11:53:00,77.0,66.0,-100.00,SSW,195,4.0,-999.0,69,0.00,,,0.01,,2013-05-27 16:53:00,
2013-05-27 12:00:00,78.0,65.0,-100.00,SSW,193,4.0,-999.0,66,0.00,,,0.01,,2013-05-27 17:00:00,
2013-05-27 12:32:00,78.0,65.0,-100.00,SSW,193,4.0,-999.0,66,0.00,,,0.01,,2013-05-27 17:32:00,
2013-05-27 12:43:00,78.0,65.0,-100.00,SSW,193,4.0,-999.0,66,0.00,,,0.01,,2013-05-27 17:43:00,
2013-05-27 12:52:00,78.0,65.0,-100.00,SSW,193,4.0,-999.0,66,0.00,,,0.01,,2013-05-27 17:52:00,
2013-05-27 13:00:00,80.0,64.0,-100.00,SSW,200,4.0,-999.0,58,0.00,,,0.01,,2013-05-27 18:00:00,
2013-05-27 13:32:00,80.0,64.0,-100.00,SSW,200,4.0,-999.0,58,0.00,,,0.01,,2013-05-27 18:32:00,
2013-05-27 13:42:00,80.0,64.0,-100.00,SSW,200,4.0,-999.0,58,0.00,,,0.01,,2013-05-27 18:42:00,
2013-05-27 13:52:00,80.0,64.0,-100.00,SSW,200,4.0,-999.0,58,0.00,,,0.01,,2013-05-27 18:52:00,
2013-05-27 14:00:00,81.0,65.0,-100.00,SSW,193,4.0,-999.0,58,0.00,,,0.01,,2013-05-27 19:00:00,
2013-05-27 14:32:00,81.0,65.0,-100.00,SSW,193,4.0,-999.0,58,0.00,,,0.01,,2013-05-27 19:32:00,
2013-05-27 14:42:00,81.0,65.0,-100.00,SSW,193,4.0,-999.0,58,0.00,,,0.01,,2013-05-27 19:42:00,
2013-05-27 14:52:00,81.0,65.0,-100.00,SSW,193,4.0,-999.0,58,0.00,,,0.01,,2013-05-27 19:52:00,
2013-05-27 15:00:00,82.0,65.0,-100.00,SSW,197,4.0,-999.0,57,0.00,,,0.01,,2013-05-27 20:00:00,
2013-05-27 15:32:00,82.0,65.0,-100.00,SSW,197,4.0,-999.0,57,0.00,,,0.01,,2013-05-27 20:32:00,
2013-05-27 15:42:00,82.0,65.0,-100.00,SSW,197,4.0,-999.0,57,0.00,,,0.01,,2013-05-27 20:42:00,
2013-05-27 15:52:00,82.0,65.0,-100.00,SSW,197,4.0,-999.0,57,0.00,,,0.01,,2013-05-27 20:52:00,
2013-05-27 16:00:00,81.0,65.0,-100.00,SSW,197,3.0,-999.0,57,0.00,,,0.00,,2013-05-27 21:00:00,
2013-05-27 16:33:00,81.0,65.0,-100.00,SSW,197,3.0,-999.0,57,0.00,,,0.00,,2013-05-27 21:33:00,
2013-05-27 16:43:00,81.0,65.0,-100.00,SSW,197,3.0,-999.0,57,0.00,,,0.00,,2013-05-27 21:43:00,
2013-05-27 16:53:00,81.0,65.0,-100.00,SSW,197,3.0,-999.0,57,0.00,,,0.00,,2013-05-27 21:53:00,
2013-05-27 17:00:00,81.0,66.0,-100.00,SSW,200,3.0,-999.0,61,0.00,,,0.00,,2013-05-27 22:00:00,
2013-05-27 17:33:00,81.0,66.0,-100.00,SSW,200,3.0,-999.0,61,0.00,,,0.00,,2013-05-27 22:33:00,
2013-05-27 17:42:00,81.0,66.0,-100.00,SSW,200,3.0,-999.0,61,0.00,,,0.00,,2013-05-27 22:42:00,
2013-05-27 17:53:00,81.0,66.0,-100.00,SSW,200,3.0,-999.0,61,0.00,,,0.00,,2013-05-27 22:53:00,
2013-05-27 18:00:00,82.0,65.0,-100.00,SSW,199,3.0,-999.0,56,0.00,,,0.00,,2013-05-27 23:00:00,
2013-05-27 18:32:00,82.0,65.0,-100.00,SSW,199,3.0,-999.0,56,0.00,,,0.00,,2013-05-27 23:32:00,
2013-05-27 18:42:00,82.0,65.0,-100.00,SSW,199,3.0,-999.0,56,0.00,,,0.00,,2013-05-27 23:42:00,
2013-05-27 18:52:00,82.0,65.0,-100.00,SSW,199,3.0,-999.0,56,0.00,,,0.00,,2013-05-27 23:52:00,
2013-05-27 19:00:00,81.0,66.0,-100.00,SSW,194,2.0,-999.0,62,0.00,,,0.00,,2013-05-28 00:00:00,
2013-05-27 19:32:00,81.0,66.0,-100.00,SSW,194,2.0,-999.0,62,0.00,,,0.00,,2013-05-28 00:32:00,
2013-05-27 19:42:00,81.0,66.0,-100.00,SSW,194,2.0,-999.0,62,0.00,,,0.00,,2013-05-28 00:42:00,
2013-05-27 19:52:00,81.0,66.0,-100.00,SSW,194,2.0,-999.0,62,0.00,,,0.00,,2013-05-28 00:52:00,
2013-05-27 20:00:00,78.0,66.0,-100.00,SSW,201,2.0,-999.0,68,0.00,,,0.00,,2013-05-28 01:00:00,
2013-05-27 20:32:00,78.0,66.0,-100.00,SSW,201,2.0,-999.0,68,0.00,,,0.00,,2013-05-28 01:32:00,
2013-05-27 20:42:00,78.0,66.0,-100.00,SSW,201,2.0,-999.0,68,0.00,,,0.00,,2013-05-28 01:42:00,
2013-05-27 20:52:00,78.0,66.0,-100.00,SSW,201,2.0,-999.0,68,0.00,,,0.00,,2013-05-28 01:52:00,
2013-05-27 21:00:00,73.0,67.0,-100.00,SW,222,2.0,-999.0,80,0.00,,,0.00,,2013-05-28 02:00:00,
2013-05-27 21:32:00,73.0,67.0,-100.00,SW,222,2.0,-999.0,80,0.00,,,0.00,,2013-05-28 02:32:00,
2013-05-27 21:42:00,73.0,67.0,-100.00,SW,222,2.0,-999.0,80,0.00,,,0.00,,2013-05-28 02:42:00,
2013-05-27 21:52:00,73.0,67.0,-100.00,SW,222,2.0,-999.0,80,0.00,,,0.00,,2013-05-28 02:52:00,
2013-05-27 22:00:00,72.0,67.0,-100.00,SSW,210,2.0,-999.0,85,0.00,,,0.00,,2013-05-28 03:00:00,
2013-05-27 22:33:00,72.0,67.0,-100.00,SSW,210,2.0,-999.0,85,0.00,,,0.00,,2013-05-28 03:33:00,
2013-05-27 22:43:00,72.0,67.0,-100.00,SSW,210,2.0,-999.0,85,0.00,,,0.00,,2013-05-28 03:43:00,
2013-05-27 22:53:00,72.0,67.0,-100.00,SSW,210,2.0,-999.0,85,0.00,,,0.00,,2013-05-28 03:53:00,
2013-05-27 23:00:00,71.0,67.0,-100.00,SW,216,2.0,-999.0,86,0.00,,,0.00,,2013-05-28 04:00:00,
2013-05-27 23:33:00,71.0,67.0,-100.00,SW,216,2.0,-999.0,86,0.00,,,0.00,,2013-05-28 04:33:00,
2013-05-27 23:43:00,71.0,67.0,-100.00,SW,216,2.0,-999.0,86,0.00,,,0.00,,2013-05-28 04:43:00,
2013-05-27 23:53:00,71.0,67.0,-100.00,SW,216,2.0,-999.0,86,0.00,,,0.00,,2013-05-28 04:53:00,